START_TIME,STEP,MOV.,P11,t_acc.,P23,t_acc.,P27,t_acc.,A4,t_acc.
1979-07-27 03:00:22.390 ,1,0,0.,4.8,0.,4.8,0.,4.8,0.,4.8
1979-07-27 03:00:27.190 ,1,0,1.,4.8,0.,4.8,0.,4.8,0.,4.8
1979-07-27 03:00:31.990 ,1,0,0.,4.8,0.,4.8,0.,4.8,0.,4.8
1979-07-27 03:00:36.790 ,1,0,0.,4.8,0.,4.8,1.,4.8,0.,4.8
1979-07-27 03:00:41.590 ,1,0,0.,4.8,0.,4.8,0.,4.8,0.,4.8
1979-07-27 03:00:46.390 ,2,0,0.,4.8,0.,4.8,0.,4.8,0.,4.8
1979-07-27 03:00:51.190 ,2,0,0.,4.8,0.,4.8,0.,4.8,0.,4.8
1979-07-27 03:00:55.990 ,2,0,0.,4.8,0.,4.8,0.,4.8,0.,4.8
1979-07-27 03:01:00.790 ,2,0,1.,4.8,0.,4.8,0.,4.8,0.,4.8
1979-07-27 03:01:05.590 ,2,0,0.,4.8,0.,4.8,0.,4.8,0.,4.8
1979-07-27 03:01:10.390 ,2,0,0.,4.8,0.,4.8,0.,4.8,0.,4.8
1979-07-27 03:01:15.190 ,2,0,0.,4.8,0.,4.8,0.,4.8,0.,4.8
1979-07-27 03:01:19.990 ,2,0,0.,4.8,0.,4.8,0.,4.8,0.,4.8
1979-07-27 03:01:24.790 ,2,0,0.,4.8,0.,4.8,0.,4.8,0.,4.8
1979-07-27 03:01:29.590 ,2,0,0.,4.8,1.,4.8,0.,4.8,0.,4.8
1979-07-27 03:01:34.390 ,3,0,0.,4.8,0.,4.8,0.,4.8,0.,4.8
1979-07-27 03:01:39.190 ,3,0,0.,4.8,0.,4.8,0.,4.8,0.,4.8
1979-07-27 03:01:43.990 ,3,0,0.,4.8,0.,4.8,0.,4.8,0.,4.8
1979-07-27 03:01:48.790 ,3,0,0.,4.8,0.,4.8,0.,4.8,0.,4.8
1979-07-27 03:01:53.590 ,3,0,0.,4.8,0.,4.8,0.,4.8,0.,4.8
1979-07-27 03:01:58.390 ,3,0,1.,4.8,0.,4.8,0.,4.8,0.,4.8
1979-07-27 03:02:03.190 ,3,0,0.,4.8,0.,4.8,0.,4.8,0.,4.8
1979-07-27 03:02:07.990 ,3,0,1.,4.8,0.,4.8,0.,4.8,0.,4.8
1979-07-27 03:02:12.790 ,3,0,0.,4.8,0.,4.8,0.,4.8,0.,4.8
1979-07-27 03:02:17.590 ,3,0,0.,4.8,0.,4.8,0.,4.8,0.,4.8
1979-07-27 03:02:22.390 ,4,0,0.,4.8,0.,4.8,0.,4.8,0.,4.8
1979-07-27 03:02:27.190 ,4,0,0.,4.8,0.,4.8,0.,4.8,0.,4.8
1979-07-27 03:02:31.990 ,4,0,1.,4.8,0.,4.8,1.,4.8,0.,4.8
1979-07-27 03:02:36.790 ,4,0,0.,4.8,1.,4.8,0.,4.8,0.,4.8
1979-07-27 03:02:41.590 ,4,0,0.,4.8,0.,4.8,0.,4.8,0.,4.8
1979-07-27 03:02:46.390 ,4,0,1.,4.8,1.,4.8,0.,4.8,0.,4.8
1979-07-27 03:02:51.190 ,4,0,0.,4.8,0.,4.8,0.,4.8,0.,4.8
1979-07-27 03:02:55.990 ,4,0,1.,4.8,0.,4.8,0.,4.8,0.,4.8
1979-07-27 03:03:00.790 ,4,0,0.,4.8,0.,4.8,0.,4.8,0.,4.8
1979-07-27 03:03:05.590 ,4,0,1.,4.8,0.,4.8,0.,4.8,0.,4.8
1979-07-27 03:03:10.390 ,5,0,0.,4.8,1.,4.8,0.,4.8,0.,4.8
1979-07-27 03:03:15.190 ,5,0,0.,4.8,0.,4.8,0.,4.8,0.,4.8
1979-07-27 03:03:19.990 ,5,0,0.,4.8,0.,4.8,0.,4.8,0.,4.8
1979-07-27 03:03:24.790 ,5,0,0.,4.8,0.,4.8,0.,4.8,0.,4.8
1979-07-27 03:03:29.590 ,5,0,1.,4.8,0.,4.8,1.,4.8,0.,4.8
1979-07-27 03:03:34.390 ,5,0,0.,4.8,0.,4.8,0.,4.8,0.,4.8
1979-07-27 03:03:39.190 ,5,0,0.,4.8,0.,4.8,0.,4.8,0.,4.8
1979-07-27 03:03:43.990 ,5,0,0.,4.8,0.,4.8,1.,4.8,0.,4.8
1979-07-27 03:03:48.790 ,5,0,0.,4.8,0.,4.8,0.,4.8,0.,4.8
1979-07-27 03:03:53.590 ,5,0,0.,4.8,0.,4.8,1.,4.8,0.,4.8
1979-07-27 03:03:58.390 ,6,0,0.,4.8,0.,4.8,0.,4.8,0.,4.8
1979-07-27 03:04:03.190 ,6,0,1.,4.8,0.,4.8,0.,4.8,0.,4.8
1979-07-27 03:04:07.990 ,6,0,0.,4.8,0.,4.8,0.,4.8,0.,4.8
1979-07-27 03:04:12.790 ,6,0,0.,4.8,0.,4.8,0.,4.8,0.,4.8
1979-07-27 03:04:17.590 ,6,0,0.,4.8,0.,4.8,0.,4.8,0.,4.8
1979-07-27 03:04:22.390 ,6,0,0.,4.8,0.,4.8,0.,4.8,0.,4.8
1979-07-27 03:04:27.190 ,6,0,1.,4.8,0.,4.8,1.,4.8,0.,4.8
1979-07-27 03:04:31.990 ,6,0,0.,4.8,0.,4.8,0.,4.8,0.,4.8
1979-07-27 03:04:36.790 ,6,0,1.,4.8,0.,4.8,0.,4.8,0.,4.8
1979-07-27 03:04:41.590 ,6,0,0.,4.8,0.,4.8,0.,4.8,0.,4.8
1979-07-27 03:04:46.390 ,7,0,1.,4.8,0.,4.8,0.,4.8,0.,4.8
1979-07-27 03:04:51.190 ,7,0,0.,4.8,0.,4.8,1.,4.8,0.,4.8
1979-07-27 03:04:55.990 ,7,0,0.,4.8,0.,4.8,0.,4.8,0.,4.8
1979-07-27 03:05:00.790 ,7,0,2.,4.8,0.,4.8,0.,4.8,0.,4.8
1979-07-27 03:05:05.590 ,7,0,0.,4.8,0.,4.8,1.,4.8,0.,4.8
1979-07-27 03:05:10.390 ,7,0,0.,4.8,0.,4.8,0.,4.8,0.,4.8
1979-07-27 03:05:15.190 ,7,0,0.,4.8,0.,4.8,0.,4.8,0.,4.8
1979-07-27 03:05:19.990 ,7,0,1.,4.8,0.,4.8,0.,4.8,0.,4.8
1979-07-27 03:05:24.790 ,7,0,0.,4.8,0.,4.8,0.,4.8,0.,4.8
1979-07-27 03:05:29.590 ,7,0,0.,4.8,0.,4.8,0.,4.8,0.,4.8
1979-07-27 03:05:34.390 ,7,0,2.,4.8,0.,4.8,0.,4.8,0.,4.8
1979-07-27 03:05:39.190 ,7,0,1.,4.8,0.,4.8,0.,4.8,0.,4.8
1979-07-27 03:05:43.990 ,7,0,0.,4.8,0.,4.8,0.,4.8,0.,4.8
1979-07-27 03:05:48.790 ,7,0,1.,4.8,0.,4.8,0.,4.8,0.,4.8
1979-07-27 03:05:53.590 ,7,0,2.,4.8,0.,4.8,0.,4.8,0.,4.8
1979-07-27 03:05:58.390 ,7,0,1.,4.8,0.,4.8,0.,4.8,0.,4.8
1979-07-27 03:06:03.190 ,7,0,1.,4.8,0.,4.8,0.,4.8,0.,4.8
1979-07-27 03:06:07.990 ,7,0,1.,4.8,0.,4.8,0.,4.8,0.,4.8
1979-07-27 03:06:12.790 ,7,0,0.,4.8,0.,4.8,0.,4.8,0.,4.8
1979-07-27 03:06:17.590 ,7,0,1.,4.8,0.,4.8,0.,4.8,0.,4.8
1979-07-27 03:06:22.390 ,6,0,0.,4.8,0.,4.8,0.,4.8,0.,4.8
1979-07-27 03:06:27.190 ,6,0,0.,4.8,0.,4.8,0.,4.8,0.,4.8
1979-07-27 03:06:31.990 ,6,0,1.,4.8,0.,4.8,0.,4.8,0.,4.8
1979-07-27 03:06:36.790 ,6,0,1.,4.8,0.,4.8,1.,4.8,0.,4.8
1979-07-27 03:06:41.590 ,6,0,0.,4.8,0.,4.8,0.,4.8,0.,4.8
1979-07-27 03:06:46.390 ,6,0,1.,4.8,0.,4.8,0.,4.8,0.,4.8
1979-07-27 03:06:51.190 ,6,0,0.,4.8,0.,4.8,0.,4.8,0.,4.8
1979-07-27 03:06:55.990 ,6,0,1.,4.8,0.,4.8,0.,4.8,0.,4.8
1979-07-27 03:07:00.790 ,6,0,1.,4.8,0.,4.8,0.,4.8,0.,4.8
1979-07-27 03:07:05.590 ,6,0,1.,4.8,0.,4.8,0.,4.8,0.,4.8
1979-07-27 03:07:10.390 ,5,0,0.,4.8,0.,4.8,0.,4.8,0.,4.8
1979-07-27 03:07:15.190 ,5,0,0.,4.8,0.,4.8,0.,4.8,0.,4.8
1979-07-27 03:07:19.990 ,5,0,1.,4.8,0.,4.8,0.,4.8,0.,4.8
1979-07-27 03:07:24.790 ,5,0,1.,4.8,0.,4.8,1.,4.8,0.,4.8
1979-07-27 03:07:29.590 ,5,0,1.,4.8,0.,4.8,0.,4.8,0.,4.8
1979-07-27 03:07:34.390 ,5,0,0.,4.8,0.,4.8,0.,4.8,0.,4.8
1979-07-27 03:07:39.190 ,5,0,0.,4.8,0.,4.8,1.,4.8,0.,4.8
1979-07-27 03:07:43.990 ,5,0,2.,4.8,0.,4.8,0.,4.8,0.,4.8
1979-07-27 03:07:48.790 ,5,0,0.,4.8,0.,4.8,0.,4.8,0.,4.8
1979-07-27 03:07:53.590 ,5,0,0.,4.8,0.,4.8,0.,4.8,0.,4.8
1979-07-27 03:07:58.390 ,4,0,0.,4.8,0.,4.8,0.,4.8,0.,4.8
1979-07-27 03:08:03.190 ,4,0,0.,4.8,0.,4.8,0.,4.8,0.,4.8
1979-07-27 03:08:07.990 ,4,0,0.,4.8,0.,4.8,0.,4.8,0.,4.8
1979-07-27 03:08:12.790 ,4,0,1.,4.8,1.,4.8,1.,4.8,0.,4.8
1979-07-27 03:08:17.590 ,4,0,0.,4.8,0.,4.8,0.,4.8,0.,4.8
1979-07-27 03:08:22.390 ,4,0,0.,4.8,0.,4.8,1.,4.8,0.,4.8
1979-07-27 03:08:27.190 ,4,0,1.,4.8,0.,4.8,1.,4.8,0.,4.8
1979-07-27 03:08:31.990 ,4,0,0.,4.8,0.,4.8,0.,4.8,0.,4.8
1979-07-27 03:08:36.790 ,4,0,1.,4.8,0.,4.8,1.,4.8,0.,4.8
1979-07-27 03:08:41.590 ,4,0,0.,4.8,0.,4.8,0.,4.8,0.,4.8
1979-07-27 03:08:46.390 ,3,0,0.,4.8,0.,4.8,0.,4.8,0.,4.8
1979-07-27 03:08:51.190 ,3,0,0.,4.8,0.,4.8,0.,4.8,0.,4.8
1979-07-27 03:08:55.990 ,3,0,0.,4.8,0.,4.8,0.,4.8,0.,4.8
1979-07-27 03:09:00.790 ,3,0,0.,4.8,0.,4.8,0.,4.8,0.,4.8
1979-07-27 03:09:05.590 ,3,0,0.,4.8,0.,4.8,0.,4.8,0.,4.8
1979-07-27 03:09:10.390 ,3,0,0.,4.8,0.,4.8,0.,4.8,0.,4.8
1979-07-27 03:09:15.190 ,3,0,0.,4.8,0.,4.8,0.,4.8,0.,4.8
1979-07-27 03:09:19.990 ,3,0,0.,4.8,0.,4.8,0.,4.8,0.,4.8
1979-07-27 03:09:24.790 ,3,0,2.,4.8,0.,4.8,0.,4.8,0.,4.8
1979-07-27 03:09:29.590 ,3,0,2.,4.8,0.,4.8,0.,4.8,0.,4.8
1979-07-27 03:09:34.390 ,2,0,1.,4.8,0.,4.8,0.,4.8,0.,4.8
1979-07-27 03:09:39.190 ,2,0,0.,4.8,0.,4.8,0.,4.8,0.,4.8
1979-07-27 03:09:43.990 ,2,0,2.,4.8,0.,4.8,0.,4.8,0.,4.8
1979-07-27 03:09:48.790 ,2,0,1.,4.8,0.,4.8,0.,4.8,0.,4.8
1979-07-27 03:09:53.590 ,2,0,0.,4.8,0.,4.8,0.,4.8,0.,4.8
1979-07-27 03:09:58.390 ,2,0,0.,4.8,0.,4.8,1.,4.8,0.,4.8
1979-07-27 03:10:03.190 ,2,0,0.,4.8,0.,4.8,0.,4.8,0.,4.8
1979-07-27 03:10:07.990 ,2,0,2.,4.8,0.,4.8,1.,4.8,0.,4.8
1979-07-27 03:10:12.790 ,2,0,0.,4.8,0.,4.8,0.,4.8,0.,4.8
1979-07-27 03:10:17.590 ,2,0,1.,4.8,0.,4.8,0.,4.8,0.,4.8
1979-07-27 03:10:22.390 ,1,0,1.,4.8,0.,4.8,0.,4.8,0.,4.8
1979-07-27 03:10:27.190 ,1,0,2.,4.8,0.,4.8,0.,4.8,0.,4.8
1979-07-27 03:10:31.990 ,1,0,1.,4.8,0.,4.8,0.,4.8,0.,4.8
1979-07-27 03:10:36.790 ,1,0,0.,4.8,0.,4.8,0.,4.8,0.,4.8
1979-07-27 03:10:41.590 ,1,0,0.,4.8,0.,4.8,0.,4.8,0.,4.8
1979-07-27 03:10:46.390 ,1,0,3.,4.8,0.,4.8,1.,4.8,0.,4.8
1979-07-27 03:10:51.190 ,1,0,1.,4.8,0.,4.8,0.,4.8,0.,4.8
1979-07-27 03:10:55.990 ,1,0,2.,4.8,0.,4.8,0.,4.8,0.,4.8
1979-07-27 03:11:00.790 ,1,0,0.,4.8,0.,4.8,0.,4.8,0.,4.8
1979-07-27 03:11:05.590 ,1,0,3.,4.8,0.,4.8,0.,4.8,0.,4.8
1979-07-27 03:11:10.390 ,0,0,0.,4.8,0.,4.8,0.,4.8,0.,4.8
1979-07-27 03:11:15.190 ,0,0,1.,4.8,0.,4.8,1.,4.8,0.,4.8
1979-07-27 03:11:19.990 ,0,0,1.,4.8,0.,4.8,0.,4.8,0.,4.8
1979-07-27 03:11:24.790 ,0,0,0.,4.8,0.,4.8,0.,4.8,0.,4.8
1979-07-27 03:11:29.590 ,0,0,1.,4.8,0.,4.8,0.,4.8,0.,4.8
1979-07-27 03:11:34.390 ,0,0,1.,4.8,0.,4.8,0.,4.8,0.,4.8
1979-07-27 03:11:39.190 ,0,0,0.,4.8,0.,4.8,0.,4.8,0.,4.8
1979-07-27 03:11:43.990 ,0,0,0.,4.8,0.,4.8,0.,4.8,0.,4.8
1979-07-27 03:11:48.790 ,0,0,1.,4.8,0.,4.8,0.,4.8,0.,4.8
1979-07-27 03:11:53.590 ,0,0,0.,4.8,0.,4.8,0.,4.8,0.,4.8
1979-07-27 03:11:58.390 ,0,0,0.,4.8,0.,4.8,0.,4.8,0.,4.8
1979-07-27 03:12:03.190 ,0,0,0.,4.8,0.,4.8,0.,4.8,0.,4.8
1979-07-27 03:12:07.990 ,0,0,1.,4.8,0.,4.8,0.,4.8,0.,4.8
1979-07-27 03:12:12.790 ,0,0,1.,4.8,0.,4.8,1.,4.8,0.,4.8
1979-07-27 03:12:17.590 ,0,0,0.,4.8,0.,4.8,1.,4.8,0.,4.8
1979-07-27 03:12:22.390 ,0,0,1.,4.8,0.,4.8,0.,4.8,0.,4.8
1979-07-27 03:12:27.190 ,0,0,0.,4.8,0.,4.8,1.,4.8,0.,4.8
1979-07-27 03:12:31.990 ,0,0,2.,4.8,0.,4.8,1.,4.8,0.,4.8
1979-07-27 03:12:36.790 ,0,0,0.,4.8,0.,4.8,0.,4.8,0.,4.8
1979-07-27 03:12:41.590 ,0,0,1.,4.8,0.,4.8,1.,4.8,0.,4.8
1979-07-27 03:12:46.390 ,1,0,1.,4.8,0.,4.8,0.,4.8,0.,4.8
1979-07-27 03:12:51.190 ,1,0,0.,4.8,0.,4.8,0.,4.8,0.,4.8
1979-07-27 03:12:55.990 ,1,0,0.,4.8,0.,4.8,0.,4.8,0.,4.8
1979-07-27 03:13:00.790 ,1,0,0.,4.8,0.,4.8,0.,4.8,0.,4.8
1979-07-27 03:13:05.590 ,1,0,1.,4.8,1.,4.8,0.,4.8,0.,4.8
1979-07-27 03:13:10.390 ,1,0,1.,4.8,0.,4.8,0.,4.8,0.,4.8
1979-07-27 03:13:15.190 ,1,0,0.,4.8,0.,4.8,0.,4.8,0.,4.8
1979-07-27 03:13:19.990 ,1,0,0.,4.8,0.,4.8,0.,4.8,0.,4.8
1979-07-27 03:13:24.790 ,1,0,0.,4.8,0.,4.8,0.,4.8,0.,4.8
1979-07-27 03:13:29.590 ,1,0,1.,4.8,0.,4.8,0.,4.8,0.,4.8
1979-07-27 03:13:34.390 ,2,0,0.,4.8,0.,4.8,0.,4.8,0.,4.8
1979-07-27 03:13:39.190 ,2,0,1.,4.8,0.,4.8,0.,4.8,0.,4.8
1979-07-27 03:13:43.990 ,2,0,0.,4.8,0.,4.8,0.,4.8,0.,4.8
1979-07-27 03:13:48.790 ,2,0,0.,4.8,0.,4.8,0.,4.8,0.,4.8
1979-07-27 03:13:53.590 ,2,0,0.,4.8,0.,4.8,0.,4.8,0.,4.8
1979-07-27 03:13:58.390 ,2,0,0.,4.8,0.,4.8,0.,4.8,0.,4.8
1979-07-27 03:14:03.190 ,2,0,1.,4.8,0.,4.8,0.,4.8,0.,4.8
1979-07-27 03:14:07.990 ,2,0,0.,4.8,0.,4.8,0.,4.8,0.,4.8
1979-07-27 03:14:12.790 ,2,0,1.,4.8,0.,4.8,0.,4.8,0.,4.8
1979-07-27 03:14:17.590 ,2,0,0.,4.8,0.,4.8,0.,4.8,0.,4.8
1979-07-27 03:14:22.390 ,3,0,0.,4.8,0.,4.8,0.,4.8,0.,4.8
1979-07-27 03:14:27.190 ,3,0,1.,4.8,0.,4.8,0.,4.8,0.,4.8
1979-07-27 03:14:31.990 ,3,0,1.,4.8,0.,4.8,0.,4.8,0.,4.8
1979-07-27 03:14:36.790 ,3,0,0.,4.8,0.,4.8,0.,4.8,0.,4.8
1979-07-27 03:14:41.590 ,3,0,1.,4.8,0.,4.8,0.,4.8,0.,4.8
1979-07-27 03:14:46.390 ,3,0,1.,4.8,0.,4.8,0.,4.8,0.,4.8
1979-07-27 03:14:51.190 ,3,0,1.,4.8,0.,4.8,0.,4.8,0.,4.8
1979-07-27 03:14:55.990 ,3,0,0.,4.8,0.,4.8,0.,4.8,0.,4.8
1979-07-27 03:15:00.790 ,3,0,0.,4.8,1.,4.8,0.,4.8,0.,4.8
1979-07-27 03:15:05.590 ,3,0,1.,4.8,0.,4.8,1.,4.8,0.,4.8
1979-07-27 03:15:10.390 ,4,0,0.,4.8,0.,4.8,0.,4.8,0.,4.8
1979-07-27 03:15:15.190 ,4,0,2.,4.8,1.,4.8,0.,4.8,0.,4.8
1979-07-27 03:15:19.990 ,4,0,0.,4.8,0.,4.8,1.,4.8,0.,4.8
1979-07-27 03:15:24.790 ,4,0,0.,4.8,0.,4.8,0.,4.8,0.,4.8
1979-07-27 03:15:29.590 ,4,0,1.,4.8,0.,4.8,0.,4.8,0.,4.8
1979-07-27 03:15:34.390 ,4,0,0.,4.8,0.,4.8,0.,4.8,0.,4.8
1979-07-27 03:15:39.190 ,4,0,0.,4.8,0.,4.8,0.,4.8,0.,4.8
1979-07-27 03:15:43.990 ,4,0,0.,4.8,0.,4.8,0.,4.8,0.,4.8
1979-07-27 03:15:48.790 ,4,0,1.,4.8,0.,4.8,0.,4.8,0.,4.8
1979-07-27 03:15:53.590 ,4,0,0.,4.8,0.,4.8,0.,4.8,0.,4.8
1979-07-27 03:15:58.390 ,5,0,1.,4.8,0.,4.8,0.,4.8,0.,4.8
1979-07-27 03:16:03.190 ,5,0,0.,4.8,0.,4.8,0.,4.8,0.,4.8
1979-07-27 03:16:07.990 ,5,0,0.,4.8,1.,4.8,0.,4.8,0.,4.8
1979-07-27 03:16:12.790 ,5,0,0.,4.8,0.,4.8,0.,4.8,0.,4.8
1979-07-27 03:16:17.590 ,5,0,0.,4.8,1.,4.8,0.,4.8,0.,4.8
1979-07-27 03:16:22.390 ,5,0,0.,4.8,0.,4.8,0.,4.8,0.,4.8
1979-07-27 03:16:27.190 ,5,0,0.,4.8,0.,4.8,0.,4.8,0.,4.8
1979-07-27 03:16:31.990 ,5,0,1.,4.8,0.,4.8,0.,4.8,0.,4.8
1979-07-27 03:16:36.790 ,5,0,1.,4.8,0.,4.8,0.,4.8,0.,4.8
1979-07-27 03:16:41.590 ,5,0,1.,4.8,0.,4.8,0.,4.8,0.,4.8
1979-07-27 03:16:46.390 ,6,0,1.,4.8,0.,4.8,0.,4.8,0.,4.8
1979-07-27 03:16:51.190 ,6,0,0.,4.8,0.,4.8,0.,4.8,0.,4.8
1979-07-27 03:16:55.990 ,6,0,0.,4.8,0.,4.8,0.,4.8,0.,4.8
1979-07-27 03:17:00.790 ,6,0,0.,4.8,0.,4.8,0.,4.8,0.,4.8
1979-07-27 03:17:05.590 ,6,0,0.,4.8,0.,4.8,0.,4.8,0.,4.8
1979-07-27 03:17:10.390 ,6,0,0.,4.8,0.,4.8,0.,4.8,0.,4.8
1979-07-27 03:17:15.190 ,6,0,0.,4.8,0.,4.8,0.,4.8,0.,4.8
1979-07-27 03:17:19.990 ,6,0,0.,4.8,1.,4.8,0.,4.8,0.,4.8
1979-07-27 03:17:24.790 ,6,0,0.,4.8,0.,4.8,0.,4.8,0.,4.8
1979-07-27 03:17:29.590 ,6,0,0.,4.8,0.,4.8,0.,4.8,0.,4.8
1979-07-27 03:17:34.390 ,7,0,0.,4.8,0.,4.8,0.,4.8,0.,4.8
1979-07-27 03:17:39.190 ,7,0,0.,4.8,0.,4.8,0.,4.8,0.,4.8
1979-07-27 03:17:43.990 ,7,0,0.,4.8,0.,4.8,0.,4.8,0.,4.8
1979-07-27 03:17:48.790 ,7,0,0.,4.8,0.,4.8,0.,4.8,0.,4.8
1979-07-27 03:17:53.590 ,7,0,1.,4.8,0.,4.8,0.,4.8,0.,4.8
1979-07-27 03:17:58.390 ,7,0,1.,4.8,0.,4.8,1.,4.8,0.,4.8
1979-07-27 03:18:03.190 ,7,0,1.,4.8,0.,4.8,0.,4.8,0.,4.8
1979-07-27 03:18:07.990 ,7,0,0.,4.8,0.,4.8,0.,4.8,0.,4.8
1979-07-27 03:18:12.790 ,7,0,0.,4.8,0.,4.8,0.,4.8,0.,4.8
1979-07-27 03:18:17.590 ,7,0,0.,4.8,0.,4.8,0.,4.8,0.,4.8
1979-07-27 03:18:22.390 ,7,0,1.,4.8,0.,4.8,0.,4.8,0.,4.8
1979-07-27 03:18:27.190 ,7,0,1.,4.8,0.,4.8,1.,4.8,0.,4.8
1979-07-27 03:18:31.990 ,7,0,2.,4.8,0.,4.8,0.,4.8,0.,4.8
1979-07-27 03:18:36.790 ,7,0,0.,4.8,0.,4.8,0.,4.8,0.,4.8
1979-07-27 03:18:41.590 ,7,0,0.,4.8,0.,4.8,0.,4.8,0.,4.8
1979-07-27 03:18:46.390 ,7,0,0.,4.8,0.,4.8,0.,4.8,0.,4.8
1979-07-27 03:18:51.190 ,7,0,0.,4.8,0.,4.8,0.,4.8,0.,4.8
1979-07-27 03:18:55.990 ,7,0,0.,4.8,0.,4.8,0.,4.8,0.,4.8
1979-07-27 03:19:00.790 ,7,0,0.,4.8,0.,4.8,0.,4.8,0.,4.8
1979-07-27 03:19:05.590 ,7,0,0.,4.8,0.,4.8,0.,4.8,0.,4.8
1979-07-27 03:19:10.390 ,6,0,0.,4.8,0.,4.8,1.,4.8,0.,4.8
1979-07-27 03:19:15.190 ,6,0,1.,4.8,0.,4.8,0.,4.8,0.,4.8
1979-07-27 03:19:19.990 ,6,0,0.,4.8,0.,4.8,0.,4.8,0.,4.8
1979-07-27 03:19:24.790 ,6,0,0.,4.8,0.,4.8,0.,4.8,0.,4.8
1979-07-27 03:19:29.590 ,6,0,0.,4.8,0.,4.8,0.,4.8,0.,4.8
1979-07-27 03:19:34.390 ,6,0,0.,4.8,0.,4.8,0.,4.8,0.,4.8
1979-07-27 03:19:39.190 ,6,0,1.,4.8,0.,4.8,0.,4.8,0.,4.8
1979-07-27 03:19:43.990 ,6,0,2.,4.8,0.,4.8,0.,4.8,0.,4.8
1979-07-27 03:19:48.790 ,6,0,1.,4.8,0.,4.8,0.,4.8,0.,4.8
1979-07-27 03:19:53.590 ,6,0,0.,4.8,0.,4.8,0.,4.8,0.,4.8
1979-07-27 03:19:58.390 ,5,0,1.,4.8,0.,4.8,0.,4.8,0.,4.8
1979-07-27 03:20:03.190 ,5,0,0.,4.8,0.,4.8,0.,4.8,0.,4.8
1979-07-27 03:20:07.990 ,5,0,1.,4.8,0.,4.8,0.,4.8,0.,4.8
1979-07-27 03:20:12.790 ,5,0,1.,4.8,0.,4.8,0.,4.8,0.,4.8
1979-07-27 03:20:17.590 ,5,0,0.,4.8,0.,4.8,0.,4.8,0.,4.8
1979-07-27 03:20:22.390 ,5,0,2.,4.8,0.,4.8,0.,4.8,0.,4.8
1979-07-27 03:20:27.190 ,5,0,0.,4.8,0.,4.8,0.,4.8,0.,4.8
1979-07-27 03:20:31.990 ,5,0,1.,4.8,0.,4.8,0.,4.8,0.,4.8
1979-07-27 03:20:36.790 ,5,0,3.,4.8,0.,4.8,0.,4.8,0.,4.8
1979-07-27 03:20:41.590 ,5,0,0.,4.8,0.,4.8,0.,4.8,0.,4.8
1979-07-27 03:20:46.390 ,4,0,1.,4.8,0.,4.8,0.,4.8,0.,4.8
1979-07-27 03:20:51.190 ,4,0,1.,4.8,0.,4.8,0.,4.8,0.,4.8
1979-07-27 03:20:55.990 ,4,0,0.,4.8,0.,4.8,0.,4.8,0.,4.8
1979-07-27 03:21:00.790 ,4,0,0.,4.8,0.,4.8,0.,4.8,0.,4.8
1979-07-27 03:21:05.590 ,4,0,0.,4.8,0.,4.8,0.,4.8,0.,4.8
1979-07-27 03:21:10.390 ,4,0,0.,4.8,0.,4.8,0.,4.8,0.,4.8
1979-07-27 03:21:15.190 ,4,0,0.,4.8,0.,4.8,0.,4.8,0.,4.8
1979-07-27 03:21:19.990 ,4,0,1.,4.8,0.,4.8,0.,4.8,0.,4.8
1979-07-27 03:21:24.790 ,4,0,1.,4.8,0.,4.8,0.,4.8,0.,4.8
1979-07-27 03:21:29.590 ,4,0,1.,4.8,0.,4.8,1.,4.8,0.,4.8
1979-07-27 03:21:34.390 ,3,0,0.,4.8,0.,4.8,0.,4.8,0.,4.8
1979-07-27 03:21:39.190 ,3,0,1.,4.8,0.,4.8,0.,4.8,0.,4.8
1979-07-27 03:21:43.990 ,3,0,0.,4.8,0.,4.8,0.,4.8,0.,4.8
1979-07-27 03:21:48.790 ,3,0,0.,4.8,0.,4.8,0.,4.8,0.,4.8
1979-07-27 03:21:53.590 ,3,0,3.,4.8,0.,4.8,0.,4.8,0.,4.8
1979-07-27 03:21:58.390 ,3,0,0.,4.8,0.,4.8,0.,4.8,0.,4.8
1979-07-27 03:22:03.190 ,3,0,0.,4.8,0.,4.8,0.,4.8,0.,4.8
1979-07-27 03:22:07.990 ,3,0,0.,4.8,0.,4.8,0.,4.8,0.,4.8
1979-07-27 03:22:12.790 ,3,0,1.,4.8,0.,4.8,0.,4.8,0.,4.8
1979-07-27 03:22:17.590 ,3,0,0.,4.8,0.,4.8,0.,4.8,0.,4.8
1979-07-27 03:22:22.390 ,2,0,0.,4.8,0.,4.8,0.,4.8,0.,4.8
1979-07-27 03:22:27.190 ,2,0,0.,4.8,0.,4.8,0.,4.8,0.,4.8
1979-07-27 03:22:31.980 ,2,0,0.,4.8,0.,4.8,1.,4.8,0.,4.8
1979-07-27 03:22:36.790 ,2,0,1.,4.8,0.,4.8,0.,4.8,0.,4.8
1979-07-27 03:22:41.590 ,2,0,0.,4.8,0.,4.8,1.,4.8,0.,4.8
1979-07-27 03:22:46.390 ,2,0,0.,4.8,0.,4.8,0.,4.8,0.,4.8
1979-07-27 03:22:51.190 ,2,0,0.,4.8,0.,4.8,1.,4.8,0.,4.8
1979-07-27 03:22:55.980 ,2,0,0.,4.8,0.,4.8,1.,4.8,0.,4.8
1979-07-27 03:23:00.790 ,2,0,1.,4.8,0.,4.8,0.,4.8,0.,4.8
1979-07-27 03:23:05.590 ,2,0,0.,4.8,0.,4.8,1.,4.8,0.,4.8
1979-07-27 03:23:10.390 ,1,0,1.,4.8,0.,4.8,0.,4.8,0.,4.8
1979-07-27 03:23:15.190 ,1,0,0.,4.8,0.,4.8,0.,4.8,0.,4.8
1979-07-27 03:23:19.980 ,1,0,1.,4.8,0.,4.8,1.,4.8,0.,4.8
1979-07-27 03:23:24.790 ,1,0,0.,4.8,0.,4.8,0.,4.8,0.,4.8
1979-07-27 03:23:29.590 ,1,0,0.,4.8,0.,4.8,0.,4.8,0.,4.8
1979-07-27 03:23:34.390 ,1,0,2.,4.8,1.,4.8,0.,4.8,0.,4.8
1979-07-27 03:23:39.190 ,1,0,0.,4.8,0.,4.8,0.,4.8,0.,4.8
1979-07-27 03:23:43.980 ,1,0,0.,4.8,0.,4.8,0.,4.8,0.,4.8
1979-07-27 03:23:48.790 ,1,0,0.,4.8,0.,4.8,0.,4.8,0.,4.8
1979-07-27 03:23:53.590 ,1,0,1.,4.8,0.,4.8,0.,4.8,0.,4.8
1979-07-27 03:23:58.390 ,0,0,2.,4.8,0.,4.8,1.,4.8,0.,4.8
1979-07-27 03:24:03.190 ,0,0,0.,4.8,0.,4.8,0.,4.8,0.,4.8
1979-07-27 03:24:07.980 ,0,0,0.,4.8,0.,4.8,1.,4.8,0.,4.8
1979-07-27 03:24:12.790 ,0,0,0.,4.8,0.,4.8,0.,4.8,0.,4.8
1979-07-27 03:24:17.590 ,0,0,1.,4.8,0.,4.8,0.,4.8,0.,4.8
1979-07-27 03:24:22.390 ,0,0,1.,4.8,0.,4.8,0.,4.8,0.,4.8
1979-07-27 03:24:27.190 ,0,0,0.,4.8,0.,4.8,1.,4.8,0.,4.8
1979-07-27 03:24:31.980 ,0,0,1.,4.8,0.,4.8,0.,4.8,0.,4.8
1979-07-27 03:24:36.790 ,0,0,1.,4.8,0.,4.8,1.,4.8,0.,4.8
1979-07-27 03:24:41.590 ,0,0,0.,4.8,1.,4.8,0.,4.8,0.,4.8
1979-07-27 03:24:46.390 ,0,0,1.,4.8,0.,4.8,0.,4.8,0.,4.8
1979-07-27 03:24:51.190 ,0,0,0.,4.8,0.,4.8,0.,4.8,0.,4.8
1979-07-27 03:24:55.980 ,0,0,1.,4.8,0.,4.8,0.,4.8,0.,4.8
1979-07-27 03:25:00.790 ,0,0,1.,4.8,0.,4.8,0.,4.8,0.,4.8
1979-07-27 03:25:05.590 ,0,0,1.,4.8,0.,4.8,0.,4.8,0.,4.8
1979-07-27 03:25:10.390 ,0,0,1.,4.8,0.,4.8,0.,4.8,0.,4.8
1979-07-27 03:25:15.190 ,0,0,0.,4.8,0.,4.8,0.,4.8,0.,4.8
1979-07-27 03:25:19.980 ,0,0,0.,4.8,0.,4.8,0.,4.8,0.,4.8
1979-07-27 03:25:24.790 ,0,0,0.,4.8,0.,4.8,0.,4.8,0.,4.8
1979-07-27 03:25:29.590 ,0,0,1.,4.8,0.,4.8,0.,4.8,0.,4.8
1979-07-27 03:25:34.390 ,1,0,2.,4.8,0.,4.8,0.,4.8,0.,4.8
1979-07-27 03:25:39.190 ,1,0,0.,4.8,0.,4.8,0.,4.8,0.,4.8
1979-07-27 03:25:43.980 ,1,0,0.,4.8,0.,4.8,0.,4.8,0.,4.8
1979-07-27 03:25:48.790 ,1,0,0.,4.8,0.,4.8,0.,4.8,0.,4.8
1979-07-27 03:25:53.590 ,1,0,1.,4.8,0.,4.8,0.,4.8,0.,4.8
1979-07-27 03:25:58.390 ,1,0,1.,4.8,0.,4.8,1.,4.8,0.,4.8
1979-07-27 03:26:03.190 ,1,0,0.,4.8,0.,4.8,0.,4.8,0.,4.8
1979-07-27 03:26:07.980 ,1,0,2.,4.8,0.,4.8,0.,4.8,0.,4.8
1979-07-27 03:26:12.790 ,1,0,0.,4.8,0.,4.8,0.,4.8,0.,4.8
1979-07-27 03:26:17.590 ,1,0,0.,4.8,0.,4.8,0.,4.8,0.,4.8
1979-07-27 03:26:22.390 ,2,0,2.,4.8,0.,4.8,0.,4.8,0.,4.8
1979-07-27 03:26:27.190 ,2,0,1.,4.8,0.,4.8,0.,4.8,0.,4.8
1979-07-27 03:26:31.980 ,2,0,1.,4.8,0.,4.8,0.,4.8,0.,4.8
1979-07-27 03:26:36.790 ,2,0,2.,4.8,0.,4.8,0.,4.8,0.,4.8
1979-07-27 03:26:41.590 ,2,0,0.,4.8,0.,4.8,0.,4.8,0.,4.8
1979-07-27 03:26:46.390 ,2,0,0.,4.8,0.,4.8,0.,4.8,0.,4.8
1979-07-27 03:26:51.190 ,2,0,0.,4.8,0.,4.8,0.,4.8,0.,4.8
1979-07-27 03:26:55.980 ,2,0,0.,4.8,0.,4.8,0.,4.8,0.,4.8
1979-07-27 03:27:00.790 ,2,0,1.,4.8,0.,4.8,0.,4.8,0.,4.8
1979-07-27 03:27:05.590 ,2,0,1.,4.8,0.,4.8,0.,4.8,0.,4.8
1979-07-27 03:27:10.390 ,3,0,1.,4.8,0.,4.8,0.,4.8,0.,4.8
1979-07-27 03:27:15.190 ,3,0,0.,4.8,0.,4.8,0.,4.8,0.,4.8
1979-07-27 03:27:19.980 ,3,0,1.,4.8,0.,4.8,0.,4.8,0.,4.8
1979-07-27 03:27:24.790 ,3,0,2.,4.8,0.,4.8,0.,4.8,0.,4.8
1979-07-27 03:27:29.590 ,3,0,0.,4.8,0.,4.8,0.,4.8,0.,4.8
1979-07-27 03:27:34.390 ,3,0,0.,4.8,0.,4.8,0.,4.8,0.,4.8
1979-07-27 03:27:39.190 ,3,0,1.,4.8,0.,4.8,0.,4.8,0.,4.8
1979-07-27 03:27:43.980 ,3,0,2.,4.8,0.,4.8,0.,4.8,0.,4.8
1979-07-27 03:27:48.790 ,3,0,0.,4.8,0.,4.8,0.,4.8,0.,4.8
1979-07-27 03:27:53.590 ,3,0,0.,4.8,0.,4.8,0.,4.8,0.,4.8
1979-07-27 03:27:58.390 ,4,0,1.,4.8,0.,4.8,0.,4.8,0.,4.8
1979-07-27 03:28:03.190 ,4,0,0.,4.8,0.,4.8,0.,4.8,0.,4.8
1979-07-27 03:28:07.980 ,4,0,0.,4.8,0.,4.8,0.,4.8,0.,4.8
1979-07-27 03:28:12.790 ,4,0,0.,4.8,0.,4.8,0.,4.8,0.,4.8
1979-07-27 03:28:17.590 ,4,0,1.,4.8,0.,4.8,0.,4.8,0.,4.8
1979-07-27 03:28:22.390 ,4,0,1.,4.8,0.,4.8,0.,4.8,0.,4.8
1979-07-27 03:28:27.190 ,4,0,0.,4.8,0.,4.8,3.,4.8,0.,4.8
1979-07-27 03:28:31.980 ,4,0,1.,4.8,0.,4.8,0.,4.8,0.,4.8
1979-07-27 03:28:36.790 ,4,0,0.,4.8,0.,4.8,0.,4.8,0.,4.8
1979-07-27 03:28:41.590 ,4,0,1.,4.8,0.,4.8,0.,4.8,0.,4.8
1979-07-27 03:28:46.390 ,5,0,1.,4.8,0.,4.8,0.,4.8,0.,4.8
1979-07-27 03:28:51.190 ,5,0,1.,4.8,0.,4.8,0.,4.8,0.,4.8
1979-07-27 03:28:55.980 ,5,0,0.,4.8,0.,4.8,0.,4.8,0.,4.8
1979-07-27 03:29:00.790 ,5,0,0.,4.8,0.,4.8,0.,4.8,0.,4.8
1979-07-27 03:29:05.590 ,5,0,1.,4.8,0.,4.8,0.,4.8,0.,4.8
1979-07-27 03:29:10.390 ,5,0,2.,4.8,0.,4.8,0.,4.8,0.,4.8
1979-07-27 03:29:15.190 ,5,0,0.,4.8,0.,4.8,0.,4.8,0.,4.8
1979-07-27 03:29:19.980 ,5,0,0.,4.8,0.,4.8,0.,4.8,0.,4.8
1979-07-27 03:29:24.790 ,5,0,0.,4.8,0.,4.8,0.,4.8,0.,4.8
1979-07-27 03:29:29.590 ,5,0,0.,4.8,0.,4.8,0.,4.8,0.,4.8
1979-07-27 03:29:34.390 ,6,0,0.,4.8,0.,4.8,1.,4.8,0.,4.8
1979-07-27 03:29:39.190 ,6,0,0.,4.8,0.,4.8,0.,4.8,0.,4.8
1979-07-27 03:29:43.980 ,6,0,0.,4.8,1.,4.8,0.,4.8,0.,4.8
1979-07-27 03:29:48.790 ,6,0,0.,4.8,0.,4.8,0.,4.8,0.,4.8
1979-07-27 03:29:53.590 ,6,0,0.,4.8,0.,4.8,1.,4.8,0.,4.8
1979-07-27 03:29:58.390 ,6,0,0.,4.8,0.,4.8,0.,4.8,0.,4.8
1979-07-27 03:30:03.190 ,6,0,1.,4.8,0.,4.8,0.,4.8,0.,4.8
1979-07-27 03:30:07.980 ,6,0,1.,4.8,0.,4.8,0.,4.8,0.,4.8
1979-07-27 03:30:12.790 ,6,0,0.,4.8,0.,4.8,0.,4.8,0.,4.8
1979-07-27 03:30:17.590 ,6,0,1.,4.8,0.,4.8,0.,4.8,0.,4.8
1979-07-27 03:30:22.390 ,7,0,0.,4.8,0.,4.8,0.,4.8,0.,4.8
1979-07-27 03:30:27.190 ,7,0,1.,4.8,0.,4.8,0.,4.8,0.,4.8
1979-07-27 03:30:31.980 ,7,0,1.,4.8,0.,4.8,0.,4.8,0.,4.8
1979-07-27 03:30:36.790 ,7,0,0.,4.8,0.,4.8,2.,4.8,0.,4.8
1979-07-27 03:30:41.590 ,7,0,0.,4.8,0.,4.8,0.,4.8,0.,4.8
1979-07-27 03:30:46.390 ,7,0,1.,4.8,0.,4.8,0.,4.8,0.,4.8
1979-07-27 03:30:51.190 ,7,0,2.,4.8,0.,4.8,0.,4.8,0.,4.8
1979-07-27 03:30:55.980 ,7,0,2.,4.8,0.,4.8,0.,4.8,0.,4.8
1979-07-27 03:31:00.790 ,7,0,1.,4.8,0.,4.8,0.,4.8,0.,4.8
1979-07-27 03:31:05.590 ,7,0,0.,4.8,0.,4.8,0.,4.8,0.,4.8
1979-07-27 03:31:10.390 ,3,1,0.,4.8,0.,4.8,1.,4.8,0.,4.8
1979-07-27 03:31:15.190 ,3,1,0.,4.8,0.,4.8,0.,4.8,0.,4.8
1979-07-27 03:31:19.980 ,3,1,0.,4.8,0.,4.8,0.,4.8,0.,4.8
1979-07-27 03:31:24.790 ,3,1,1.,4.8,0.,4.8,0.,4.8,0.,4.8
1979-07-27 03:31:29.590 ,3,1,0.,4.8,0.,4.8,0.,4.8,0.,4.8
1979-07-27 03:31:34.390 ,0,1,0.,4.8,0.,4.8,0.,4.8,0.,4.8
1979-07-27 03:31:39.190 ,0,1,1.,4.8,0.,4.8,0.,4.8,0.,4.8
1979-07-27 03:31:43.980 ,0,1,1.,4.8,0.,4.8,0.,4.8,0.,4.8
1979-07-27 03:31:48.790 ,0,1,1.,4.8,0.,4.8,0.,4.8,0.,4.8
1979-07-27 03:31:53.590 ,0,1,0.,4.8,0.,4.8,0.,4.8,0.,4.8
1979-07-27 03:31:58.390 ,4,1,0.,4.8,1.,4.8,0.,4.8,0.,4.8
1979-07-27 03:32:03.190 ,4,1,2.,4.8,0.,4.8,0.,4.8,0.,4.8
1979-07-27 03:32:07.980 ,4,1,1.,4.8,0.,4.8,0.,4.8,0.,4.8
1979-07-27 03:32:12.790 ,4,1,2.,4.8,1.,4.8,1.,4.8,0.,4.8
1979-07-27 03:32:17.590 ,4,1,0.,4.8,0.,4.8,0.,4.8,0.,4.8
1979-07-27 03:32:22.390 ,7,1,1.,4.8,0.,4.8,0.,4.8,0.,4.8
1979-07-27 03:32:27.190 ,7,1,1.,4.8,0.,4.8,1.,4.8,0.,4.8
1979-07-27 03:32:31.980 ,7,1,1.,4.8,0.,4.8,0.,4.8,0.,4.8
1979-07-27 03:32:36.790 ,7,1,1.,4.8,0.,4.8,1.,4.8,0.,4.8
1979-07-27 03:32:41.590 ,7,1,1.,4.8,0.,4.8,0.,4.8,0.,4.8
1979-07-27 03:32:46.390 ,3,1,0.,4.8,0.,4.8,0.,4.8,0.,4.8
1979-07-27 03:32:51.190 ,3,1,0.,4.8,0.,4.8,0.,4.8,0.,4.8
1979-07-27 03:32:55.980 ,3,1,0.,4.8,0.,4.8,0.,4.8,0.,4.8
1979-07-27 03:33:00.790 ,3,1,1.,4.8,0.,4.8,0.,4.8,0.,4.8
1979-07-27 03:33:05.590 ,3,1,0.,4.8,0.,4.8,0.,4.8,0.,4.8
1979-07-27 03:33:10.390 ,0,1,1.,4.8,0.,4.8,0.,4.8,0.,4.8
1979-07-27 03:33:15.190 ,0,1,1.,4.8,0.,4.8,0.,4.8,0.,4.8